sat.trackr.live / text

‹ back to catalog

STARLINK-5836

NORAD 56386 · 2023-061N

PAYLOAD ACTIVE UNKNOWN

§ Identity

Operator
Country
US
Launch date
2023-05-04
Launch site
AFETR
Launch vehicle
Mass (kg)
RCS (m²)

Purposes: comms

External: N2YO · Heavens-Above · Gunter

§ Orbital elements

Epoch: 2026-05-24T23:24:46.177344Z

Period
94.27 min
Inclination
43.0021°
Eccentricity
0.0001079
Mean motion
15.27577487 rev/d
Perigee alt
482.3 km
Apogee alt
483.8 km
Semi-major
6,861.2 km
B*
2.3213e-5
RAAN
127.3227°
Arg perigee
260.4288°
Mean anomaly
99.6442°
Rev number
16,841

§ Raw data

STARLINK-58361 56386U 23061N   26144.97553446  .00000377  00000+0  23213-4 0  99912 56386  43.0021 127.3227 0001079 260.4288  99.6442 15.27577487168418

JSON: /api/v1/satellites/56386 · /tle

For live sub-satellite position, see the globe view (requires WebGL).

§ Visibility from observer

Set your observer location to see the next 7 days of passes ≥ 10°. The values pass through the URL so the page stays shareable.

No JS? Fill the form by hand. The geolocation button needs JavaScript.